Météo par heure à Kisteni

Ce jour, 6 Mars, Samedi

Heure Température Précipitation Vent Pression Humidité
00:00 -7°C° 0 mm 2 m/s 750 mmHg 77%
01:00 -8°C° 0 mm 2 m/s 751 mmHg 75%
02:00 -8°C° 0 mm 2 m/s 751 mmHg 73%
03:00 -8°C° 0 mm 2 m/s 751 mmHg 74%
04:00 -8°C° 0 mm 2 m/s 751 mmHg 74%
05:00 -8°C° 0 mm 2 m/s 751 mmHg 74%
06:00 -7°C° 0 mm 2 m/s 751 mmHg 78%
07:00 -7°C° 0 mm 2 m/s 751 mmHg 82%
08:00 -6°C° 0 mm 2 m/s 752 mmHg 86%
09:00 -6°C° 0.1 mm 2 m/s 752 mmHg 83%
10:00 -5°C° 0.1 mm 2 m/s 752 mmHg 80%
11:00 -4°C° 0.1 mm 2 m/s 752 mmHg 77%
12:00 -3°C° 0.1 mm 2 m/s 752 mmHg 73%
13:00 -4°C° 0.1 mm 3 m/s 752 mmHg 69%
14:00 -4°C° 0.1 mm 3 m/s 752 mmHg 65%
15:00 -4°C° 0 mm 3 m/s 752 mmHg 66%
16:00 -5°C° 0 mm 3 m/s 752 mmHg 67%
17:00 -4°C° 0 mm 2 m/s 752 mmHg 69%
18:00 -6°C° 0 mm 3 m/s 751 mmHg 71%
19:00 -6°C° 0 mm 3 m/s 751 mmHg 73%
20:00 -7°C° 0 mm 3 m/s 751 mmHg 76%
21:00 -8°C° 0 mm 4 m/s 751 mmHg 77%
22:00 -8°C° 0 mm 4 m/s 750 mmHg 77%
23:00 -8°C° 0 mm 5 m/s 750 mmHg 78%

Demain, 7 Mars, Dimanche

Heure Température Précipitation Vent Pression Humidité
00:00 -9°C° 0 mm 6 m/s 749 mmHg 77%
01:00 -8°C° 0 mm 6 m/s 748 mmHg 76%
02:00 -8°C° 0 mm 7 m/s 747 mmHg 75%
03:00 -7°C° 0 mm 7 m/s 746 mmHg 75%
04:00 -7°C° 0 mm 8 m/s 745 mmHg 75%
05:00 -7°C° 0 mm 8 m/s 743 mmHg 75%
06:00 -6°C° 0 mm 9 m/s 742 mmHg 79%
07:00 -6°C° 0 mm 9 m/s 742 mmHg 82%
08:00 -5°C° 0 mm 9 m/s 741 mmHg 86%
09:00 -5°C° 0.1 mm 10 m/s 740 mmHg 87%
10:00 -4°C° 0.1 mm 10 m/s 740 mmHg 88%
11:00 -4°C° 0.1 mm 10 m/s 740 mmHg 90%
12:00 -4°C° 0.8 mm 9 m/s 740 mmHg 90%
13:00 -3°C° 0.8 mm 7 m/s 740 mmHg 90%
14:00 -2°C° 0.8 mm 5 m/s 740 mmHg 91%
15:00 -2°C° 0.3 mm 5 m/s 740 mmHg 88%
16:00 -2°C° 0.3 mm 5 m/s 739 mmHg 86%
17:00 -2°C° 0.3 mm 5 m/s 739 mmHg 84%
18:00 -4°C° 0.1 mm 5 m/s 739 mmHg 84%
19:00 -4°C° 0.1 mm 5 m/s 739 mmHg 85%
20:00 -5°C° 0.1 mm 5 m/s 739 mmHg 85%
21:00 -5°C° 0 mm 5 m/s 739 mmHg 82%
22:00 -6°C° 0 mm 6 m/s 739 mmHg 79%
23:00 -6°C° 0 mm 6 m/s 739 mmHg 76%

Après-demain, 8 Mars, Lundi

Heure Température Précipitation Vent Pression Humidité
00:00 -8°C° 0 mm 6 m/s 739 mmHg 77%
01:00 -8°C° 0 mm 6 m/s 740 mmHg 78%
02:00 -9°C° 0 mm 6 m/s 740 mmHg 80%
03:00 -10°C° 0 mm 5 m/s 741 mmHg 77%
04:00 -10°C° 0 mm 5 m/s 741 mmHg 75%
05:00 -10°C° 0 mm 4 m/s 741 mmHg 73%
06:00 -10°C° 0 mm 4 m/s 742 mmHg 74%
07:00 -10°C° 0 mm 4 m/s 742 mmHg 74%
08:00 -10°C° 0 mm 4 m/s 743 mmHg 75%
09:00 -9°C° 0 mm 4 m/s 743 mmHg 71%
10:00 -8°C° 0 mm 4 m/s 744 mmHg 68%
11:00 -7°C° 0 mm 4 m/s 744 mmHg 64%
12:00 -7°C° 0 mm 4 m/s 744 mmHg 64%
13:00 -5°C° 0 mm 4 m/s 744 mmHg 64%
14:00 -5°C° 0 mm 4 m/s 745 mmHg 64%
15:00 -5°C° 0 mm 4 m/s 745 mmHg 68%
16:00 -5°C° 0 mm 4 m/s 745 mmHg 72%
17:00 -5°C° 0 mm 3 m/s 745 mmHg 76%
18:00 -6°C° 0 mm 3 m/s 745 mmHg 79%
19:00 -7°C° 0 mm 3 m/s 746 mmHg 83%
20:00 -6°C° 0 mm 2 m/s 746 mmHg 86%
21:00 -8°C° 0 mm 3 m/s 747 mmHg 85%
22:00 -8°C° 0 mm 3 m/s 747 mmHg 85%
23:00 -9°C° 0 mm 3 m/s 747 mmHg 84%

9 Mars, Mardi

Heure Température Précipitation Vent Pression Humidité
00:00 -10°C° 0 mm 3 m/s 748 mmHg 85%
01:00 -10°C° 0 mm 3 m/s 748 mmHg 86%
02:00 -12°C° 0 mm 3 m/s 749 mmHg 87%
03:00 -12°C° 0 mm 3 m/s 749 mmHg 88%
04:00 -12°C° 0 mm 3 m/s 749 mmHg 88%
05:00 -13°C° 0 mm 3 m/s 750 mmHg 89%
06:00 -13°C° 0 mm 3 m/s 750 mmHg 88%
07:00 -12°C° 0 mm 3 m/s 751 mmHg 86%
08:00 -12°C° 0 mm 3 m/s 751 mmHg 85%
09:00 -10°C° 0 mm 3 m/s 752 mmHg 79%
10:00 -9°C° 0 mm 3 m/s 752 mmHg 73%
11:00 -9°C° 0 mm 3 m/s 752 mmHg 67%
12:00 -8°C° 0 mm 3 m/s 752 mmHg 64%
13:00 -7°C° 0 mm 3 m/s 752 mmHg 60%
14:00 -6°C° 0 mm 3 m/s 752 mmHg 57%
15:00 -6°C° 0 mm 3 m/s 752 mmHg 61%
16:00 -6°C° 0 mm 2 m/s 752 mmHg 64%
17:00 -6°C° 0 mm 2 m/s 751 mmHg 67%
18:00 -6°C° 0 mm 2 m/s 752 mmHg 69%
19:00 -8°C° 0 mm 3 m/s 752 mmHg 72%
20:00 -8°C° 0 mm 3 m/s 752 mmHg 74%
21:00 -8°C° 0 mm 3 m/s 752 mmHg 74%
22:00 -8°C° 0 mm 3 m/s 752 mmHg 75%
23:00 -8°C° 0 mm 3 m/s 752 mmHg 75%

10 Mars, Mercredi

Heure Température Précipitation Vent Pression Humidité
00:00 -8°C° 0 mm 3 m/s 752 mmHg 76%
01:00 -8°C° 0 mm 3 m/s 752 mmHg 76%
02:00 -8°C° 0 mm 3 m/s 751 mmHg 77%
03:00 -8°C° 0 mm 3 m/s 751 mmHg 77%
04:00 -8°C° 0 mm 3 m/s 751 mmHg 78%
05:00 -8°C° 0 mm 3 m/s 751 mmHg 79%
06:00 -8°C° 0 mm 3 m/s 750 mmHg 78%
07:00 -8°C° 0 mm 3 m/s 750 mmHg 77%
08:00 -8°C° 0 mm 3 m/s 750 mmHg 76%
09:00 -7°C° 0 mm 3 m/s 750 mmHg 72%
10:00 -5°C° 0 mm 3 m/s 750 mmHg 67%
11:00 -4°C° 0 mm 3 m/s 750 mmHg 62%
12:00 -4°C° 0 mm 3 m/s 750 mmHg 61%
13:00 -2°C° 0 mm 3 m/s 750 mmHg 59%
14:00 -2°C° 0 mm 3 m/s 750 mmHg 58%
15:00 -2°C° 0 mm 2 m/s 750 mmHg 62%
16:00 -3°C° 0 mm 2 m/s 750 mmHg 66%
17:00 -1°C° 0 mm 1 m/s 750 mmHg 70%
18:00 -2°C° 0 mm 1 m/s 750 mmHg 72%
19:00 -3°C° 0 mm 1 m/s 750 mmHg 74%
20:00 -3°C° 0 mm 1 m/s 750 mmHg 76%
21:00 -4°C° 0 mm 1 m/s 751 mmHg 78%
22:00 -4°C° 0 mm 1 m/s 751 mmHg 81%
23:00 -4°C° 0 mm 1 m/s 751 mmHg 83%

11 Mars, Jeudi

Heure Température Précipitation Vent Pression Humidité
00:00 -6°C° 0 mm 1 m/s 751 mmHg 85%
01:00 -6°C° 0 mm 1 m/s 751 mmHg 87%
02:00 -7°C° 0 mm 1 m/s 751 mmHg 89%
03:00 -7°C° 0 mm 1 m/s 751 mmHg 90%
04:00 -7°C° 0 mm 1 m/s 751 mmHg 91%
05:00 -9°C° 0 mm 2 m/s 751 mmHg 92%
06:00 -9°C° 0 mm 2 m/s 751 mmHg 91%
07:00 -8°C° 0 mm 2 m/s 751 mmHg 91%
08:00 -9°C° 0 mm 3 m/s 751 mmHg 90%
09:00 -8°C° 0 mm 3 m/s 751 mmHg 87%
10:00 -7°C° 0 mm 3 m/s 751 mmHg 84%
11:00 -5°C° 0 mm 3 m/s 751 mmHg 82%
12:00 -4°C° 0 mm 4 m/s 750 mmHg 79%
13:00 -3°C° 0 mm 4 m/s 750 mmHg 77%
14:00 -2°C° 0 mm 5 m/s 749 mmHg 75%
15:00 -2°C° 0 mm 5 m/s 749 mmHg 75%
16:00 -2°C° 0 mm 5 m/s 748 mmHg 76%
17:00 -2°C° 0 mm 5 m/s 747 mmHg 76%
18:00 -3°C° 0.2 mm 6 m/s 746 mmHg 82%
19:00 -3°C° 0.2 mm 6 m/s 746 mmHg 88%
20:00 -4°C° 0.2 mm 7 m/s 745 mmHg 95%
21:00 -3°C° 1 mm 7 m/s 744 mmHg 95%
22:00 -3°C° 1 mm 7 m/s 743 mmHg 96%
23:00 -4°C° 1 mm 8 m/s 742 mmHg 97%
Voir plus

Nous avons besoin de votre consentement

Meteoprog et ses fournisseurs de services peuvent stocker et accéder à des données personnelles telles que des cookies, des identifiants d'appareils ou d'autres technologies similaires sur votre appareil et traiter ces données pour personnaliser le contenu et les publicités, ainsi que pour fournir des fonctionnalités de médias sociaux et analyser le trafic.

  • Stocker et/ou accéder à des informations sur votre appareil

    Des cookies, des identifiants d'appareils ou d'autres informations peuvent être stockés ou accessibles sur votre appareil aux fins indiquées ci-dessus.

  • Annonces et contenus personnalisés, mesure des annonces et des contenus, connaissance de l'audience et développement de produits

    Les annonces et le contenu peuvent être personnalisés en fonction d'un profil. D'autres données peuvent être ajoutées pour mieux personnaliser les annonces et le contenu. Les performances des publicités et du contenu peuvent être mesurées. Il est possible d'obtenir des informations sur le public qui a vu les publicités et le contenu. Ces données peuvent être utilisées pour développer ou améliorer l'expérience de l'utilisateur, les systèmes et les logiciels.

En cliquant sur "J'accepte", vous autorisez l'utilisation de cookies, des identifiants d'appareils, des balises web ou d'autres technologies similaires. Vos paramètres peuvent être modifiés dans le navigateur de votre appareil.

Dans certains cas, des intérêts légitimes peuvent être invoqués plutôt qu'un consentement. Vous pouvez en savoir plus à ce sujet dans notre Politique de confidentialité et de cookies.